Regional Weather Roundup
Issued by NWS

Home | Current Version | Previous Version | Graphics & Text | Print | Product List | Glossary Off
Versions: 1 2 3 4 5 6 7 8 9 10 11 12 13 14 15 16 17 18 19 20 21 22 23 24 25 26 27

000
ASUS45 KSLC 282010
RWRUT

UTAH REGIONAL WEATHER ROUNDUP
NATIONAL WEATHER SERVICE SALT LAKE CITY UT
200 PM MDT FRI APR 28 2017

UTZ001>011-023>025-282100-

NORTHERN UTAH

CITY           SKY/WX    TMP DP  RH WIND       PRES   REMARKS
BRIGHAM CITY   CLOUDY    42  30  62 N21       29.93S
HILL AFB       LGT SNOW  37  34  87 N14       29.92S WCI  29
LOGAN          LGT RAIN  39  35  86 N16       29.93S WCI  30
OGDEN          LGT RAIN  38  34  85 N12G21    29.92S WCI  30
SALT LAKE CITY LGT RAIN  42  37  82 NW21G28   29.93S
TOOELE VALLEY  CLOUDY    41  34  75 NW18      29.95S
WENDOVER       MOSUNNY   49  19  30 N16G26    29.96F
HEBER CITY     MIX PCPN  37  27  65 CALM      29.85S
WEST JORDAN    CLOUDY    39  39 100 NW16      29.94R WCI  30

$$

UTZ011>015-024>027-282100-

CENTRAL/NORTHEAST UTAH

CITY           SKY/WX    TMP DP  RH WIND       PRES   REMARKS
PROVO AIRPORT  CLOUDY    41  32  70 NW23      29.93R
MOAB/CANYONLAN MOSUNNY   53   8  16 W12       29.73F
DELTA          PTSUNNY   46  18  31 N16G23    29.90S
PRICE          PTSUNNY   44  19  36 NW20G32   29.78R
ROOSEVELT      MOSUNNY   48  18  29 CALM      29.78S
VERNAL         CLOUDY    43  22  43 VRB5      29.78R

$$

UTZ013>016-019>022-027-282100-

SOUTHERN UTAH

CITY           SKY/WX    TMP DP  RH WIND       PRES   REMARKS
BRYCE CANYON   LGT SNOW  30  20  66 NW17      29.86R WCI  18
CEDAR CITY     MOSUNNY   44  19  36 N18G38    29.88R
MILFORD        CLOUDY    43  24  47 N12G20    29.91S
ST GEORGE      CLOUDY    59  20  22 E8        29.85F
HANKSVILLE     MOSUNNY   52   9  17 NW16      29.79S
BLANDING       CLOUDY    40  20  44 E10G16    29.81S WCI  34

$$

REGIONAL REPORTS     COLORADO/ARIZONA

CITY           SKY/WX    TMP DP  RH WIND       PRES   REMARKS
CRAIG, CO      CLOUDY    42  19  39 CALM      29.76R
GRAND JUNCTION SUNNY     52  17  25 N15G24    29.74R
RIFLE, CO      CLOUDY    45  22  40 W14       29.74R
MONTROSE, CO   SUNNY     46  13  26 NW10G20   29.74F
CORTEZ, CO     CLOUDY    47  20  34 W12G18    29.73R
COLORADO CITY    N/A     55  16  21 NW22G28   29.87S
PAGE, AZ       PTSUNNY   57  10  15 N18G30    29.77S
GRAND CANYON   PTSUNNY   46   5  18 W9G20     29.81F
KINGMAN, AZ    SUNNY     64   8  11 N20G37    29.83F
FLAGSTAFF, AZ  SUNNY     50   4  15 W13G24    29.76F

$$

REGIONAL REPORTS    NEVADA/IDAHO/WYOMING

CITY           SKY/WX    TMP DP  RH WIND       PRES   REMARKS
LAS VEGAS, NV  MOSUNNY   68   8   9 N17G33    29.85S
ELY, NY        MOSUNNY   40  22  48 NW20      29.97R WCI  30
ELKO, NV       PTSUNNY   42  21  43 NW9       30.04F
POCATELLO, ID  CLOUDY    44  30  57 N10G22    29.97S
BURLEY, ID     PTSUNNY   47  24  40 NW10      29.98S
FORT BRIDGER,  LGT SNOW  33  33 100 W15       29.83  VSB 1   WCI  23
EVANSTON, WY   SNOW      30  28  92 NW10      29.84R VSB 1/4 WCI  21
ROCK SPRINGS,  LGT SNOW  33  28  81 N12       29.81R WCI  24
KEMMERER, WY   FLURRIES  34  28  80 NW12      29.80S WCI  25

$$




USA.gov is the U.S. government's official web portal to all federal, state and local government web resources and services.